Regional Weather Roundup
Issued by NWS

Home | Current Version | Previous Version | Graphics & Text | Print | Product List | Glossary On
Versions: 1 2 3 4 5 6 7 8 9 10 11 12 13 14 15 16 17 18 19 20 21 22 23 24 25 26 27 28 29 30 31 32 33 34 35 36 37 38 39 40 41 42 43 44 45 46 47 48 49 50
000
ASUS43 KBIS 200702
RWRND

NORTH DAKOTA REGIONAL WEATHER ROUNDUP
NATIONAL WEATHER SERVICE BISMARCK ND
100 AM CST FRI JAN 20 2017

NOTE: "FAIR" INDICATES FEW OR NO CLOUDS BELOW 12,000 FEET WITH NO
SIGNIFICANT WEATHER AND/OR OBSTRUCTIONS TO VISIBILITY.


NDZ001>003-009>011-017-200800-
NORTHWEST NORTH DAKOTA

CITY           SKY/WX    TMP DP  RH WIND       PRES   REMARKS
WILLISTON      FAIR      11   9  92 S3        29.42F FOG
MINOT          FAIR      20  17  88 SE6       29.40S WCI  12
MINOT AFB      CLOUDY    15  13  90 S3        29.39S
$$

NDZ018>021-031>035-040>046-200800-
SOUTHWEST NORTH DAKOTA

CITY           SKY/WX    TMP DP  RH WIND       PRES   REMARKS
BISMARCK       FOG       14  12  92 SE3       29.46F VSB 1/4
DICKINSON      FAIR      18  14  84 W9        29.38F WCI   7
GARRISON         N/A     12   9  87 CALM      29.41F
HETTINGER ARPT CLOUDY    20  15  81 VRB3      29.41F
$$

NDZ004>008-012>016-024-026-027-054-200800-
NORTHEAST NORTH DAKOTA

CITY           SKY/WX    TMP DP  RH WIND       PRES   REMARKS
GRAND FORKS    FOG       35  33  92 S8        29.54F VSB 1
GRND FRKS AFB  CLOUDY    33  33  99 S8        29.53F FOG
DEVILS LAKE    CLOUDY    26  25  96 S12       29.49S FOG     WCI  16
$$

NDZ022-023-025-028>030-036>039-047>053-200800-
SOUTHEAST NORTH DAKOTA

CITY           SKY/WX    TMP DP  RH WIND       PRES   REMARKS
FARGO          CLOUDY    48  36  63 S10       29.55F HAZE
JAMESTOWN      FOG       33  33 100 S6        29.48F VSB 1/2
$$




USA.gov is the U.S. government's official web portal to all federal, state and local government web resources and services.